This demonstration page uses our WeatherBlox Daily Observations layout. Learn more.

Left ArrowRight Arrow

Hourly Observations for December 27, 2019

Temp ( °F °C ) Dew Point ( °F °C ) Humidity (%) Winds ( mph kmh ) Pressure ( in mb ) Visibility ( mi km ) Precip ( " mm )
12:52 am 00:52 Clear 24 -4.4 22 -5.6 91 91 SSE 3 6 30.24 1024 10 16 0.00 0.00
1:52 am 01:52 Clear 23 -5 21 -6.1 92 92 SSE 6 9 30.26 1025 10 16 0.00 0.00
2:52 am 02:52 Clear 24 -4.4 21 -6.1 88 88 SSE 6 9 30.28 1025 10 16 0.00 0.00
3:52 am 03:52 Clear 23 -5 21 -6.1 92 92 SSE 5 7 30.29 1026 10 16 0.00 0.00
4:52 am 04:52 Mostly Clear 23 -5 21 -6.1 92 92 SE 7 11 30.29 1026 9 14 0.00 0.00
5:52 am 05:52 Mostly Clear 23 -5 21 -6.1 92 92 SE 7 11 30.30 1026 9 14 0.00 0.00
6:52 am 06:52 Mostly Clear 23 -5 21 -6.1 92 92 SE 6 9 30.29 1026 9 14 0.00 0.00
7:52 am 07:52 Partly Cloudy 23 -5 21 -6.1 92 92 S 7 11 30.31 1026 8 13 0.00 0.00
8:52 am 08:52 Mostly Cloudy 24 -4.4 23 -5 96 96 SE 6 9 30.31 1026 8 13 0.00 0.00
9:52 am 09:52 Mostly Cloudy 29 -1.7 26 -3.3 89 89 SE 5 7 30.30 1026 7 11 0.00 0.00
10:52 am 10:52 Mostly Cloudy 33 0.6 28 -2.2 82 82 S 5 7 30.29 1026 9 14 0.00 0.00
11:52 am 11:52 Mostly Cloudy 36 2.2 28 -2.2 73 73 S 6 9 30.25 1025 10 16 0.00 0.00
12:52 pm 12:52 Mostly Cloudy 39 3.9 28 -2.2 65 65 SSW 9 15 30.25 1024 10 16 0.00 0.00
1:52 pm 13:52 Mostly Cloudy 39 3.9 28 -2.2 65 65 SSE 5 7 30.21 1023 10 16 0.00 0.00
2:52 pm 14:52 Mostly Cloudy 42 5.6 28 -2.2 58 58 N 3 6 30.18 1022 10 16 0.00 0.00
3:52 pm 15:52 Mostly Cloudy 41 5 28 -2.2 60 60 SE 6 9 30.19 1022 10 16 0.00 0.00
4:52 pm 16:52 Mostly Cloudy 39 3.9 27 -2.8 62 62 ESE 5 7 30.18 1022 10 16 0.00 0.00
5:52 pm 17:52 Partly Cloudy 36 2.2 26 -3.3 67 67 SE 5 7 30.17 1022 10 16 0.00 0.00
6:52 pm 18:52 Mostly Cloudy 38 3.3 27 -2.8 65 65 ESE 7 11 30.15 1021 10 16 0.00 0.00
7:52 pm 19:52 Mostly Cloudy 39 3.9 27 -2.8 62 62 SE 7 11 30.13 1020 10 16 0.00 0.00
8:52 pm 20:52 Cloudy 39 3.9 27 -2.8 62 62 SE 12 19 30.10 1019 10 16 0.00 0.00
9:52 pm 21:52 Cloudy 39 3.9 28 -2.2 65 65 ESE 14 22 30.06 1018 10 16 0.00 0.00
10:52 pm 22:52 Cloudy 40 4.4 28 -2.2 63 63 SE 16 26 30.04 1017 10 16 0.00 0.00
11:43 pm 23:43 Cloudy with Light Rain 39 3.9 31 -0.6 73 73 ESE 12 19 30.04 1017 10 16 0.00 0.00
11:52 pm 23:52 Cloudy with Light Rain 39 3.9 31 -0.6 73 73 E 9 15 30.01 1016 6 10 0.00 0.00

Powered by AerisWeather